Wetterdaten: Woche 04.12.17 - 10.12.17 (KW49)
Datum Zeit Temp. A. Pool Temp. Feuchte A. Luftdruck Regen Wind Richtung Sonnenschein ET UV Solar Taupunkt Windchill Windben Empfang
04.12.2017 00:00 -0,8 C 4,4 C 85 % 1025,5 hPa 0,0 l/m 19,2 km/h (3 Bft) W-SW 0,00 h 0,000 mm 0,0 UV-I 0 W/m -3,0 C -10,2 C 28,1 km/h (4 Bft) 97,69 %
04.12.2017 01:00 -0,6 C 4,4 C 86 % 1025,5 hPa 0,0 l/m 15,3 km/h (3 Bft) SW 0,00 h 0,025 mm 0,0 UV-I 0 W/m -2,6 C -7,8 C 23,0 km/h (4 Bft) 99,40 %
04.12.2017 02:00 -0,6 C 4,4 C 87 % 1025,7 hPa 0,0 l/m 14,7 km/h (3 Bft) W-SW 0,00 h 0,026 mm 0,0 UV-I 0 W/m -2,4 C -7,4 C 21,8 km/h (4 Bft) 96,72 %
04.12.2017 03:00 -0,3 C 4,4 C 86 % 1025,6 hPa 0,0 l/m 16,9 km/h (3 Bft) W-SW 0,00 h 0,025 mm 0,0 UV-I 0 W/m -2,4 C -8,4 C 25,1 km/h (4 Bft) 98,37 %
04.12.2017 04:00 -0,6 C 4,4 C 90 % 1025,7 hPa 0,0 l/m 15,9 km/h (3 Bft) SW 0,00 h 0,026 mm 0,0 UV-I 0 W/m -2,0 C -8,1 C 23,3 km/h (4 Bft) 98,31 %
04.12.2017 05:00 -0,3 C 4,4 C 90 % 1025,7 hPa 0,0 l/m 14,2 km/h (3 Bft) W-SW 0,00 h 0,000 mm 0,0 UV-I 0 W/m -1,7 C -6,8 C 21,0 km/h (4 Bft) 98,53 %
04.12.2017 06:00 -0,1 C 4,4 C 91 % 1025,9 hPa 0,0 l/m 14,8 km/h (3 Bft) W-SW 0,00 h 0,000 mm 0,0 UV-I 0 W/m -1,4 C -6,9 C 22,0 km/h (4 Bft) 97,71 %
04.12.2017 07:00 -0,0 C 4,4 C 91 % 1025,9 hPa 0,0 l/m 19,7 km/h (3 Bft) SW 0,00 h 0,000 mm 0,0 UV-I 6 W/m -1,3 C -9,5 C 29,0 km/h (5 Bft) 97,31 %
04.12.2017 08:00 0,4 C 4,4 C 90 % 1026,6 hPa 0,0 l/m 16,4 km/h (3 Bft) W-SW 0,00 h 0,025 mm 0,0 UV-I 21 W/m -1,1 C -7,3 C 24,5 km/h (4 Bft) 98,81 %
04.12.2017 09:00 0,6 C 4,4 C 91 % 1027,0 hPa 0,0 l/m 16,8 km/h (3 Bft) W-SW 0,00 h 0,025 mm 0,0 UV-I 59 W/m -0,7 C -7,2 C 24,4 km/h (4 Bft) 98,14 %
04.12.2017 10:00 0,7 C 4,4 C 93 % 1027,0 hPa 0,0 l/m 17,1 km/h (3 Bft) W-SW 0,07 h 0,026 mm 0,0 UV-I 112 W/m -0,2 C -7,2 C 25,2 km/h (4 Bft) 98,93 %
04.12.2017 11:00 0,9 C 4,4 C 94 % 1026,6 hPa 0,4 l/m 13,6 km/h (3 Bft) W-SW 0,00 h 0,051 mm 0,0 UV-I 82 W/m -0,0 C -4,9 C 20,4 km/h (4 Bft) 95,74 %
04.12.2017 12:00 0,8 C 4,4 C 95 % 1026,1 hPa 0,4 l/m 13,8 km/h (3 Bft) W-SW 0,00 h 0,025 mm 0,0 UV-I 65 W/m 0,1 C -5,3 C 20,3 km/h (4 Bft) 99,17 %
04.12.2017 13:00 0,5 C 4,4 C 96 % 1026,0 hPa 0,2 l/m 11,1 km/h (2 Bft) W-SW 0,00 h 0,025 mm 0,0 UV-I 38 W/m -0,1 C -3,8 C 16,3 km/h (3 Bft) 97,95 %
04.12.2017 14:00 0,4 C 4,4 C 97 % 1026,0 hPa 0,2 l/m 10,4 km/h (2 Bft) W-SW 0,00 h 0,026 mm 0,0 UV-I 26 W/m -0,0 C -3,3 C 14,9 km/h (3 Bft) 99,36 %
04.12.2017 15:00 0,5 C 4,4 C 97 % 1026,1 hPa 0,4 l/m 9,7 km/h (2 Bft) W-SW 0,00 h 0,000 mm 0,0 UV-I 11 W/m 0,1 C -2,6 C 14,8 km/h (3 Bft) 95,71 %
04.12.2017 16:00 0,4 C 4,4 C 97 % 1026,4 hPa 0,2 l/m 10,6 km/h (2 Bft) W-SW 0,00 h 0,000 mm 0,0 UV-I 4 W/m 0,0 C -3,3 C 15,5 km/h (3 Bft) 98,72 %
04.12.2017 17:00 0,5 C 4,4 C 97 % 1026,9 hPa 0,2 l/m 6,7 km/h (2 Bft) W-SW 0,00 h 0,000 mm 0,0 UV-I 0 W/m 0,0 C -0,6 C 10,8 km/h (2 Bft) 98,22 %
04.12.2017 18:00 0,8 C 4,4 C 97 % 1027,8 hPa 0,4 l/m 10,7 km/h (2 Bft) W-SW 0,00 h 0,000 mm 0,0 UV-I 0 W/m 0,4 C -2,8 C 16,2 km/h (3 Bft) 99,28 %
04.12.2017 19:00 1,2 C 4,4 C 97 % 1028,4 hPa 0,8 l/m 15,4 km/h (3 Bft) W-SW 0,00 h 0,000 mm 0,0 UV-I 0 W/m 0,8 C -5,6 C 22,6 km/h (4 Bft) 96,05 %
04.12.2017 20:00 1,6 C 4,4 C 95 % 1029,1 hPa 0,8 l/m 14,1 km/h (3 Bft) W-SW 0,00 h 0,000 mm 0,0 UV-I 0 W/m 0,9 C -4,4 C 20,8 km/h (4 Bft) 98,46 %
04.12.2017 21:00 1,5 C 4,4 C 95 % 1029,5 hPa 0,8 l/m 13,9 km/h (3 Bft) W 0,00 h 0,000 mm 0,0 UV-I 0 W/m 0,8 C -4,4 C 19,6 km/h (3 Bft) 98,75 %
04.12.2017 22:00 1,6 C 4,4 C 96 % 1030,0 hPa 0,8 l/m 15,7 km/h (3 Bft) W-SW 0,00 h 0,000 mm 0,0 UV-I 0 W/m 1,0 C -5,4 C 23,8 km/h (4 Bft) 98,59 %
04.12.2017 23:00 1,8 C 4,4 C 94 % 1030,7 hPa 0,8 l/m 16,1 km/h (3 Bft) W-SW 0,00 h 0,000 mm 0,0 UV-I 0 W/m 1,0 C -5,4 C 24,4 km/h (4 Bft) 97,74 %
05.12.2017 00:00 1,9 C 4,4 C 94 % 1031,3 hPa 0,8 l/m 12,2 km/h (2 Bft) W-SW 0,00 h 0,000 mm 0,0 UV-I 0 W/m 1,0 C -2,8 C 17,9 km/h (3 Bft) 91,66 %
05.12.2017 01:00 1,6 C 4,4 C 96 % 1031,3 hPa 1,2 l/m 12,1 km/h (2 Bft) W-SW 0,00 h 0,000 mm 0,0 UV-I 0 W/m 1,0 C -3,1 C 17,6 km/h (3 Bft) 98,97 %
05.12.2017 02:00 1,8 C 4,4 C 96 % 1031,8 hPa 1,0 l/m 17,2 km/h (3 Bft) W 0,00 h 0,000 mm 0,0 UV-I 0 W/m 1,2 C -5,8 C 26,3 km/h (4 Bft) 97,53 %
05.12.2017 03:00 2,0 C 4,4 C 95 % 1032,1 hPa 1,2 l/m 17,5 km/h (3 Bft) W 0,00 h 0,000 mm 0,0 UV-I 0 W/m 1,3 C -5,8 C 25,1 km/h (4 Bft) 99,16 %
05.12.2017 04:00 1,9 C 4,4 C 95 % 1032,3 hPa 1,0 l/m 13,0 km/h (3 Bft) W-SW 0,00 h 0,000 mm 0,0 UV-I 0 W/m 1,2 C -3,4 C 18,7 km/h (3 Bft) 96,84 %
05.12.2017 05:00 1,7 C 4,4 C 96 % 1032,5 hPa 0,8 l/m 10,8 km/h (2 Bft) SW 0,00 h 0,000 mm 0,0 UV-I 0 W/m 1,1 C -2,1 C 15,5 km/h (3 Bft) 98,09 %
05.12.2017 06:00 1,9 C 4,4 C 96 % 1032,6 hPa 0,8 l/m 12,4 km/h (3 Bft) SW 0,00 h 0,000 mm 0,0 UV-I 0 W/m 1,3 C -3,0 C 18,2 km/h (3 Bft) 98,16 %
05.12.2017 07:00 1,7 C 4,4 C 96 % 1033,1 hPa 1,6 l/m 17,6 km/h (3 Bft) SW 0,00 h 0,000 mm 0,0 UV-I 5 W/m 1,1 C -6,2 C 25,6 km/h (4 Bft) 99,28 %
05.12.2017 08:00 1,7 C 4,2 C 95 % 1033,4 hPa 0,6 l/m 19,9 km/h (4 Bft) SW 0,00 h 0,000 mm 0,0 UV-I 12 W/m 1,0 C -7,4 C 29,8 km/h (5 Bft) 97,70 %
05.12.2017 09:00 1,8 C 4,2 C 95 % 1033,9 hPa 0,6 l/m 19,0 km/h (3 Bft) SW 0,00 h 0,000 mm 0,0 UV-I 31 W/m 1,1 C -6,8 C 28,0 km/h (4 Bft) 97,09 %
05.12.2017 10:00 2,0 C 4,0 C 95 % 1034,4 hPa 0,8 l/m 21,0 km/h (4 Bft) W-SW 0,00 h 0,025 mm 0,0 UV-I 46 W/m 1,2 C -7,5 C 30,7 km/h (5 Bft) 98,05 %
05.12.2017 11:00 2,3 C 4,1 C 95 % 1034,3 hPa 0,2 l/m 18,8 km/h (3 Bft) SW 0,00 h 0,026 mm 0,0 UV-I 43 W/m 1,6 C -6,0 C 27,7 km/h (4 Bft) 98,96 %
05.12.2017 12:00 2,6 C 3,9 C 94 % 1034,2 hPa 0,2 l/m 17,5 km/h (3 Bft) W-SW 0,00 h 0,025 mm 0,0 UV-I 63 W/m 1,8 C -5,1 C 26,1 km/h (4 Bft) 98,25 %
05.12.2017 13:00 3,1 C 4,0 C 93 % 1034,0 hPa 0,2 l/m 18,9 km/h (3 Bft) W-SW 0,00 h 0,026 mm 0,0 UV-I 77 W/m 2,1 C -5,1 C 27,9 km/h (4 Bft) 96,40 %
05.12.2017 14:00 3,3 C 4,0 C 91 % 1033,9 hPa 0,2 l/m 18,9 km/h (3 Bft) SW 0,00 h 0,050 mm 0,0 UV-I 39 W/m 2,0 C -4,8 C 27,6 km/h (4 Bft) 98,00 %
05.12.2017 15:00 3,5 C 3,9 C 89 % 1034,0 hPa 0,0 l/m 20,0 km/h (4 Bft) W-SW 0,00 h 0,026 mm 0,0 UV-I 18 W/m 1,8 C -5,1 C 30,4 km/h (5 Bft) 98,65 %
05.12.2017 16:00 3,6 C 3,9 C 87 % 1034,0 hPa 0,0 l/m 17,3 km/h (3 Bft) W-SW 0,00 h 0,025 mm 0,0 UV-I 6 W/m 1,5 C -3,8 C 25,3 km/h (4 Bft) 98,81 %
05.12.2017 17:00 3,5 C 3,9 C 86 % 1034,2 hPa 0,0 l/m 16,4 km/h (3 Bft) W-SW 0,00 h 0,026 mm 0,0 UV-I 0 W/m 1,4 C -3,4 C 24,3 km/h (4 Bft) 96,80 %
05.12.2017 18:00 3,7 C 3,9 C 84 % 1034,2 hPa 0,0 l/m 16,7 km/h (3 Bft) W-SW 0,00 h 0,025 mm 0,0 UV-I 0 W/m 1,3 C -3,4 C 24,7 km/h (4 Bft) 97,38 %
05.12.2017 19:00 3,7 C 3,9 C 83 % 1034,2 hPa 0,0 l/m 16,6 km/h (3 Bft) W-SW 0,00 h 0,025 mm 0,0 UV-I 0 W/m 1,1 C -3,3 C 25,0 km/h (4 Bft) 98,21 %
05.12.2017 20:00 3,3 C 3,9 C 85 % 1034,2 hPa 0,0 l/m 16,3 km/h (3 Bft) SW 0,00 h 0,026 mm 0,0 UV-I 0 W/m 1,0 C -3,6 C 23,6 km/h (4 Bft) 99,57 %
05.12.2017 21:00 3,4 C 3,9 C 84 % 1034,1 hPa 0,0 l/m 19,4 km/h (3 Bft) SW 0,00 h 0,025 mm 0,0 UV-I 0 W/m 1,0 C -4,9 C 29,2 km/h (5 Bft) 98,07 %
05.12.2017 22:00 3,5 C 3,9 C 84 % 1033,9 hPa 0,0 l/m 23,4 km/h (4 Bft) SW 0,00 h 0,026 mm 0,0 UV-I 0 W/m 1,0 C -6,4 C 34,4 km/h (5 Bft) 97,29 %
05.12.2017 23:00 3,6 C 3,9 C 83 % 1034,0 hPa 0,0 l/m 20,3 km/h (4 Bft) SW 0,00 h 0,025 mm 0,0 UV-I 0 W/m 1,0 C -5,0 C 31,7 km/h (5 Bft) 98,05 %
06.12.2017 00:00 3,5 C 3,9 C 83 % 1033,9 hPa 0,0 l/m 20,7 km/h (4 Bft) SW 0,00 h 0,000 mm 0,0 UV-I 0 W/m 0,8 C -5,3 C 31,0 km/h (5 Bft) 99,45 %
06.12.2017 01:00 3,5 C 3,9 C 82 % 1033,6 hPa 0,0 l/m 21,5 km/h (4 Bft) W-SW 0,00 h 0,025 mm 0,0 UV-I 0 W/m 0,7 C -5,7 C 32,0 km/h (5 Bft) 98,43 %
06.12.2017 02:00 3,4 C 3,9 C 82 % 1033,8 hPa 0,0 l/m 16,2 km/h (3 Bft) W-SW 0,00 h 0,026 mm 0,0 UV-I 0 W/m 0,7 C -3,5 C 24,0 km/h (4 Bft) 97,35 %
06.12.2017 03:00 3,3 C 3,9 C 82 % 1033,6 hPa 0,0 l/m 18,1 km/h (3 Bft) SW 0,00 h 0,025 mm 0,0 UV-I 0 W/m 0,5 C -4,5 C 27,4 km/h (4 Bft) 97,30 %
06.12.2017 04:00 3,2 C 3,9 C 83 % 1033,5 hPa 0,0 l/m 16,6 km/h (3 Bft) SW 0,00 h 0,026 mm 0,0 UV-I 0 W/m 0,6 C -3,9 C 25,3 km/h (4 Bft) 98,82 %
06.12.2017 05:00 3,3 C 3,9 C 82 % 1033,4 hPa 0,0 l/m 17,7 km/h (3 Bft) SW 0,00 h 0,025 mm 0,0 UV-I 0 W/m 0,5 C -4,4 C 27,5 km/h (4 Bft) 98,59 %
06.12.2017 06:00 3,2 C 3,9 C 82 % 1033,3 hPa 0,0 l/m 17,3 km/h (3 Bft) SW 0,00 h 0,025 mm 0,0 UV-I 0 W/m 0,5 C -4,2 C 25,7 km/h (4 Bft) 97,51 %
06.12.2017 07:00 3,2 C 3,9 C 82 % 1033,1 hPa 0,0 l/m 18,1 km/h (3 Bft) W-SW 0,00 h 0,026 mm 0,0 UV-I 6 W/m 0,4 C -4,6 C 26,9 km/h (4 Bft) 96,78 %
06.12.2017 08:00 3,2 C 3,9 C 82 % 1033,3 hPa 0,0 l/m 19,2 km/h (3 Bft) W-SW 0,00 h 0,025 mm 0,0 UV-I 32 W/m 0,4 C -5,1 C 28,4 km/h (4 Bft) 98,57 %
06.12.2017 09:00 3,4 C 3,9 C 81 % 1033,4 hPa 0,0 l/m 18,0 km/h (3 Bft) W-SW 0,00 h 0,051 mm 0,0 UV-I 69 W/m 0,4 C -4,3 C 27,2 km/h (4 Bft) 98,56 %
06.12.2017 10:00 3,5 C 3,9 C 81 % 1033,5 hPa 0,0 l/m 16,2 km/h (3 Bft) W-SW 0,00 h 0,051 mm 0,0 UV-I 78 W/m 0,5 C -3,3 C 23,5 km/h (4 Bft) 98,20 %
06.12.2017 11:00 3,5 C 3,9 C 80 % 1033,3 hPa 0,0 l/m 18,2 km/h (3 Bft) W 0,00 h 0,051 mm 0,0 UV-I 80 W/m 0,4 C -4,2 C 28,1 km/h (4 Bft) 97,16 %
06.12.2017 12:00 3,6 C 3,9 C 80 % 1033,0 hPa 0,0 l/m 15,6 km/h (3 Bft) W-SW 0,00 h 0,050 mm 0,0 UV-I 82 W/m 0,5 C -2,8 C 23,8 km/h (4 Bft) 98,44 %
06.12.2017 13:00 3,5 C 3,9 C 82 % 1032,7 hPa 0,0 l/m 11,7 km/h (2 Bft) W-SW 0,00 h 0,051 mm 0,0 UV-I 59 W/m 0,7 C -0,7 C 18,2 km/h (3 Bft) 98,84 %
06.12.2017 14:00 3,3 C 3,9 C 83 % 1032,1 hPa 0,0 l/m 11,2 km/h (2 Bft) W-SW 0,00 h 0,051 mm 0,0 UV-I 46 W/m 0,7 C -0,6 C 17,1 km/h (3 Bft) 97,86 %
06.12.2017 15:00 3,1 C 3,9 C 83 % 1032,0 hPa 0,0 l/m 12,4 km/h (3 Bft) W-SW 0,03 h 0,025 mm 0,0 UV-I 16 W/m 0,5 C -1,7 C 18,9 km/h (3 Bft) 96,97 %
06.12.2017 16:00 2,6 C 3,9 C 84 % 1032,1 hPa 0,0 l/m 13,0 km/h (3 Bft) SW 0,00 h 0,026 mm 0,0 UV-I 6 W/m 0,2 C -2,6 C 19,5 km/h (3 Bft) 97,61 %
06.12.2017 17:00 2,2 C 3,9 C 85 % 1032,1 hPa 0,0 l/m 13,8 km/h (3 Bft) W-SW 0,00 h 0,025 mm 0,0 UV-I 0 W/m -0,0 C -3,5 C 20,7 km/h (4 Bft) 99,11 %
06.12.2017 18:00 1,9 C 3,9 C 86 % 1031,9 hPa 0,0 l/m 14,2 km/h (3 Bft) W-SW 0,00 h 0,026 mm 0,0 UV-I 0 W/m -0,2 C -4,2 C 21,0 km/h (4 Bft) 98,31 %
06.12.2017 19:00 1,8 C 3,9 C 86 % 1031,8 hPa 0,0 l/m 12,5 km/h (3 Bft) SW 0,00 h 0,025 mm 0,0 UV-I 0 W/m -0,3 C -3,3 C 19,5 km/h (3 Bft) 96,93 %
06.12.2017 20:00 1,7 C 3,9 C 87 % 1031,6 hPa 0,0 l/m 10,8 km/h (2 Bft) W-SW 0,00 h 0,025 mm 0,0 UV-I 0 W/m -0,3 C -2,1 C 16,6 km/h (3 Bft) 97,45 %
06.12.2017 21:00 1,5 C 3,9 C 87 % 1031,5 hPa 0,0 l/m 9,2 km/h (2 Bft) W-SW 0,00 h 0,026 mm 0,0 UV-I 0 W/m -0,4 C -1,1 C 14,6 km/h (3 Bft) 99,31 %
06.12.2017 22:00 1,3 C 3,9 C 88 % 1031,1 hPa 0,0 l/m 9,2 km/h (2 Bft) SW 0,00 h 0,000 mm 0,0 UV-I 0 W/m -0,5 C -1,4 C 14,7 km/h (3 Bft) 97,90 %
06.12.2017 23:00 1,1 C 3,9 C 89 % 1030,7 hPa 0,0 l/m 9,3 km/h (2 Bft) SW 0,00 h 0,000 mm 0,0 UV-I 0 W/m -0,5 C -1,6 C 14,6 km/h (3 Bft) 97,08 %
07.12.2017 00:00 1,0 C 3,9 C 89 % 1030,1 hPa 0,0 l/m 7,8 km/h (2 Bft) SW 0,00 h 0,000 mm 0,0 UV-I 0 W/m -0,6 C -0,5 C 12,5 km/h (3 Bft) 97,42 %
07.12.2017 01:00 0,9 C 3,9 C 89 % 1029,7 hPa 0,0 l/m 7,6 km/h (2 Bft) W-SW 0,00 h 0,000 mm 0,0 UV-I 0 W/m -0,8 C -0,5 C 12,0 km/h (2 Bft) 99,55 %
07.12.2017 02:00 0,7 C 3,9 C 88 % 1029,3 hPa 0,0 l/m 8,9 km/h (2 Bft) SW 0,00 h 0,000 mm 0,0 UV-I 0 W/m -1,0 C -1,6 C 14,4 km/h (3 Bft) 97,80 %
07.12.2017 03:00 0,5 C 3,9 C 89 % 1028,8 hPa 0,0 l/m 6,0 km/h (2 Bft) SW 0,00 h 0,000 mm 0,0 UV-I 0 W/m -1,1 C -0,0 C 9,7 km/h (2 Bft) 97,09 %
07.12.2017 04:00 0,3 C 3,9 C 90 % 1028,3 hPa 0,0 l/m 6,8 km/h (2 Bft) SW 0,00 h 0,000 mm 0,0 UV-I 0 W/m -1,1 C -0,5 C 10,8 km/h (2 Bft) 98,06 %
07.12.2017 05:00 0,1 C 3,9 C 91 % 1028,0 hPa 0,0 l/m 4,5 km/h (1 Bft) W-SW 0,00 h 0,000 mm 0,0 UV-I 0 W/m -1,2 C -0,1 C 7,1 km/h (2 Bft) 99,19 %
07.12.2017 06:00 0,1 C 3,9 C 92 % 1027,6 hPa 0,0 l/m 2,6 km/h (1 Bft) SW 0,00 h 0,000 mm 0,0 UV-I 0 W/m -1,0 C 0,1 C 4,6 km/h (1 Bft) 96,98 %
07.12.2017 07:00 0,2 C 3,9 C 93 % 1027,4 hPa 0,0 l/m 1,8 km/h (1 Bft) S-SW 0,00 h 0,000 mm 0,0 UV-I 6 W/m -0,9 C 0,2 C 3,6 km/h (1 Bft) 97,12 %
07.12.2017 08:00 0,1 C 3,9 C 93 % 1027,3 hPa 0,0 l/m 3,2 km/h (1 Bft) S-SW 0,00 h 0,000 mm 0,0 UV-I 27 W/m -0,9 C 0,1 C 5,4 km/h (1 Bft) 98,15 %
07.12.2017 09:00 -0,0 C 3,9 C 93 % 1027,0 hPa 0,0 l/m 3,3 km/h (1 Bft) S-SW 0,00 h 0,000 mm 0,0 UV-I 69 W/m -1,0 C -0,1 C 6,0 km/h (2 Bft) 99,39 %
07.12.2017 10:00 0,2 C 3,9 C 92 % 1026,8 hPa 0,0 l/m 3,0 km/h (1 Bft) W 0,00 h 0,025 mm 0,0 UV-I 100 W/m -0,8 C 0,2 C 5,1 km/h (1 Bft) 96,58 %
07.12.2017 11:00 0,8 C 3,9 C 91 % 1026,0 hPa 0,0 l/m 1,6 km/h (1 Bft) S-SW 0,57 h 0,026 mm 0,5 UV-I 216 W/m -0,4 C 0,8 C 3,6 km/h (1 Bft) 97,68 %
07.12.2017 12:00 1,7 C 3,9 C 89 % 1025,0 hPa 0,0 l/m 2,9 km/h (1 Bft) SW 1,00 h 0,076 mm 0,7 UV-I 329 W/m 0,0 C 1,7 C 5,4 km/h (1 Bft) 96,86 %
07.12.2017 13:00 2,7 C 3,9 C 86 % 1024,0 hPa 0,0 l/m 1,8 km/h (1 Bft) S-SW 1,00 h 0,127 mm 0,5 UV-I 269 W/m 0,5 C 2,7 C 3,7 km/h (1 Bft) 98,27 %
07.12.2017 14:00 2,9 C 3,9 C 87 % 1023,3 hPa 0,0 l/m 1,6 km/h (1 Bft) N-NO 1,00 h 0,102 mm 0,0 UV-I 171 W/m 0,9 C 2,9 C 3,2 km/h (1 Bft) 99,24 %
07.12.2017 15:00 2,0 C 3,9 C 90 % 1022,7 hPa 0,0 l/m 3,4 km/h (1 Bft) N-NO 0,97 h 0,076 mm 0,0 UV-I 63 W/m 0,5 C 1,9 C 6,0 km/h (2 Bft) 99,18 %
07.12.2017 16:00 0,5 C 3,9 C 92 % 1021,9 hPa 0,0 l/m 2,9 km/h (1 Bft) N-NO 0,00 h 0,025 mm 0,0 UV-I 8 W/m -0,6 C 0,5 C 4,2 km/h (1 Bft) 96,21 %
07.12.2017 17:00 -0,8 C 3,9 C 95 % 1021,2 hPa 0,0 l/m 0,9 km/h (0 Bft) N-NO 0,00 h 0,000 mm 0,0 UV-I 0 W/m -1,5 C -0,8 C 1,7 km/h (1 Bft) 98,66 %
07.12.2017 18:00 -1,1 C 3,9 C 96 % 1020,7 hPa 0,0 l/m 1,9 km/h (1 Bft) N-NO 0,00 h 0,000 mm 0,0 UV-I 0 W/m -1,6 C -1,1 C 3,4 km/h (1 Bft) 98,59 %
07.12.2017 19:00 -1,3 C 3,9 C 96 % 1020,1 hPa 0,0 l/m 1,8 km/h (1 Bft) N-NO 0,00 h 0,000 mm 0,0 UV-I 0 W/m -1,9 C -1,3 C 3,8 km/h (1 Bft) 98,80 %
07.12.2017 20:00 -1,4 C 3,9 C 96 % 1019,4 hPa 0,0 l/m 1,5 km/h (1 Bft) SO 0,00 h 0,000 mm 0,0 UV-I 0 W/m -2,0 C -1,4 C 2,7 km/h (1 Bft) 96,73 %
07.12.2017 21:00 -1,8 C 3,9 C 96 % 1018,8 hPa 0,0 l/m 0,3 km/h (0 Bft) SO 0,00 h 0,000 mm 0,0 UV-I 0 W/m -2,3 C -1,8 C 0,9 km/h (0 Bft) 97,01 %
07.12.2017 22:00 -2,2 C 3,9 C 96 % 1017,9 hPa 0,0 l/m 0,5 km/h (0 Bft) S 0,00 h 0,000 mm 0,0 UV-I 0 W/m -2,7 C -2,2 C 1,6 km/h (1 Bft) 98,96 %
07.12.2017 23:00 -2,5 C 3,9 C 96 % 1017,0 hPa 0,0 l/m 0,5 km/h (0 Bft) S 0,00 h 0,000 mm 0,0 UV-I 0 W/m -3,0 C -2,5 C 2,0 km/h (1 Bft) 96,20 %
08.12.2017 00:00 -2,9 C 3,9 C 97 % 1016,0 hPa 0,0 l/m 0,9 km/h (0 Bft) S 0,00 h 0,000 mm 0,0 UV-I 0 W/m -3,3 C -2,9 C 1,9 km/h (1 Bft) 97,62 %
08.12.2017 01:00 -2,9 C 3,9 C 97 % 1014,6 hPa 0,0 l/m 2,1 km/h (1 Bft) O-NO 0,00 h 0,000 mm 0,0 UV-I 0 W/m -3,3 C -2,9 C 3,7 km/h (1 Bft) 97,19 %
08.12.2017 02:00 -3,2 C 3,9 C 97 % 1013,5 hPa 0,0 l/m 3,4 km/h (1 Bft) NO 0,00 h 0,000 mm 0,0 UV-I 0 W/m -3,6 C -3,4 C 5,1 km/h (1 Bft) 99,11 %
08.12.2017 03:00 -3,1 C 3,9 C 97 % 1013,1 hPa 0,0 l/m 3,4 km/h (1 Bft) NW 0,00 h 0,000 mm 0,0 UV-I 0 W/m -3,5 C -3,2 C 6,7 km/h (2 Bft) 96,34 %
08.12.2017 04:00 -3,3 C 3,9 C 97 % 1012,8 hPa 0,0 l/m 3,5 km/h (1 Bft) N 0,00 h 0,000 mm 0,0 UV-I 0 W/m -3,8 C -3,6 C 6,3 km/h (2 Bft) 98,78 %
08.12.2017 05:00 -2,9 C 3,9 C 97 % 1012,7 hPa 0,0 l/m 5,0 km/h (1 Bft) W-SW 0,00 h 0,000 mm 0,0 UV-I 0 W/m -3,3 C -3,1 C 8,2 km/h (2 Bft) 97,97 %
08.12.2017 06:00 -2,5 C 3,9 C 97 % 1012,8 hPa 0,0 l/m 4,7 km/h (1 Bft) S-SW 0,00 h 0,000 mm 0,0 UV-I 0 W/m -2,9 C -2,6 C 7,5 km/h (2 Bft) 97,40 %
08.12.2017 07:00 -1,8 C 3,9 C 97 % 1012,5 hPa 0,0 l/m 3,1 km/h (1 Bft) S-SW 0,00 h 0,000 mm 0,0 UV-I 8 W/m -2,2 C -1,8 C 5,7 km/h (1 Bft) 98,43 %
08.12.2017 08:00 -0,6 C 3,9 C 96 % 1012,5 hPa 0,0 l/m 2,8 km/h (1 Bft) S 0,00 h 0,000 mm 0,0 UV-I 16 W/m -1,1 C -0,6 C 5,1 km/h (1 Bft) 98,91 %
08.12.2017 09:00 -0,1 C 3,9 C 96 % 1012,4 hPa 0,0 l/m 1,5 km/h (1 Bft) NW 0,00 h 0,000 mm 0,0 UV-I 51 W/m -0,6 C -0,1 C 3,3 km/h (1 Bft) 97,66 %
08.12.2017 10:00 0,4 C 3,9 C 96 % 1012,0 hPa 0,0 l/m 1,5 km/h (1 Bft) O-NO 0,00 h 0,025 mm 0,0 UV-I 71 W/m -0,2 C 0,4 C 2,9 km/h (1 Bft) 97,21 %
08.12.2017 11:00 1,2 C 3,9 C 95 % 1011,3 hPa 0,2 l/m 1,6 km/h (1 Bft) SO 0,00 h 0,026 mm 0,0 UV-I 61 W/m 0,5 C 1,2 C 3,8 km/h (1 Bft) 98,95 %
08.12.2017 12:00 2,6 C 3,9 C 94 % 1010,7 hPa 0,2 l/m 7,0 km/h (2 Bft) SW 0,00 h 0,025 mm 0,0 UV-I 54 W/m 1,8 C 1,0 C 10,9 km/h (2 Bft) 98,70 %
08.12.2017 13:00 3,8 C 3,9 C 92 % 1010,2 hPa 0,2 l/m 13,1 km/h (3 Bft) SW 0,00 h 0,026 mm 0,0 UV-I 65 W/m 2,6 C -1,2 C 19,8 km/h (3 Bft) 99,09 %
08.12.2017 14:00 2,8 C 3,9 C 94 % 1011,0 hPa 0,8 l/m 11,2 km/h (2 Bft) W 0,00 h 0,025 mm 0,0 UV-I 21 W/m 2,0 C -1,1 C 19,9 km/h (4 Bft) 96,48 %
08.12.2017 15:00 2,6 C 3,9 C 94 % 1012,0 hPa 0,0 l/m 12,1 km/h (2 Bft) SW 0,00 h 0,025 mm 0,0 UV-I 16 W/m 1,8 C -2,0 C 19,1 km/h (3 Bft) 97,52 %
08.12.2017 16:00 2,2 C 3,9 C 91 % 1012,5 hPa 0,0 l/m 15,9 km/h (3 Bft) SW 0,00 h 0,000 mm 0,0 UV-I 6 W/m 0,9 C -4,7 C 24,5 km/h (4 Bft) 97,56 %
08.12.2017 17:00 2,2 C 3,9 C 88 % 1012,3 hPa 0,0 l/m 12,0 km/h (2 Bft) S-SW 0,00 h 0,026 mm 0,0 UV-I 0 W/m 0,4 C -2,4 C 19,2 km/h (3 Bft) 99,48 %
08.12.2017 18:00 2,1 C 3,9 C 89 % 1012,1 hPa 0,2 l/m 12,7 km/h (3 Bft) SW 0,00 h 0,025 mm 0,0 UV-I 0 W/m 0,5 C -3,0 C 19,7 km/h (3 Bft) 96,86 %
08.12.2017 19:00 1,3 C 3,9 C 93 % 1012,5 hPa 0,4 l/m 15,8 km/h (3 Bft) SW 0,00 h 0,000 mm 0,0 UV-I 0 W/m 0,3 C -5,8 C 23,9 km/h (4 Bft) 97,59 %
08.12.2017 20:00 1,4 C 3,9 C 90 % 1013,0 hPa 0,0 l/m 14,2 km/h (3 Bft) W-SW 0,00 h 0,000 mm 0,0 UV-I 0 W/m -0,1 C -4,8 C 20,9 km/h (4 Bft) 98,39 %
08.12.2017 21:00 1,2 C 3,9 C 88 % 1013,2 hPa 0,0 l/m 11,9 km/h (2 Bft) SW 0,00 h 0,000 mm 0,0 UV-I 0 W/m -0,7 C -3,5 C 18,3 km/h (3 Bft) 98,51 %
08.12.2017 22:00 0,9 C 3,9 C 87 % 1012,8 hPa 0,0 l/m 12,0 km/h (2 Bft) SW 0,00 h 0,026 mm 0,0 UV-I 0 W/m -1,0 C -3,8 C 18,1 km/h (3 Bft) 97,54 %
08.12.2017 23:00 0,9 C 3,9 C 84 % 1012,3 hPa 0,0 l/m 10,5 km/h (2 Bft) W-SW 0,00 h 0,025 mm 0,0 UV-I 0 W/m -1,5 C -2,7 C 16,0 km/h (3 Bft) 96,90 %
09.12.2017 00:00 0,7 C 3,9 C 89 % 1011,6 hPa 0,0 l/m 11,7 km/h (2 Bft) SW 0,00 h 0,000 mm 0,0 UV-I 0 W/m -0,9 C -3,9 C 17,9 km/h (3 Bft) 98,93 %
09.12.2017 01:00 0,9 C 3,9 C 89 % 1011,3 hPa 0,0 l/m 13,7 km/h (3 Bft) SW 0,00 h 0,000 mm 0,0 UV-I 0 W/m -0,7 C -5,1 C 21,1 km/h (4 Bft) 98,12 %
09.12.2017 02:00 0,5 C 3,9 C 90 % 1011,2 hPa 0,0 l/m 12,1 km/h (2 Bft) W-SW 0,00 h 0,025 mm 0,0 UV-I 0 W/m -1,0 C -4,4 C 18,4 km/h (3 Bft) 97,83 %
09.12.2017 03:00 -0,0 C 3,9 C 94 % 1011,2 hPa 0,0 l/m 10,0 km/h (2 Bft) W-SW 0,00 h 0,000 mm 0,0 UV-I 0 W/m -1,0 C -3,2 C 15,9 km/h (3 Bft) 96,52 %
09.12.2017 04:00 -0,1 C 3,9 C 94 % 1011,4 hPa 0,0 l/m 8,2 km/h (2 Bft) W 0,00 h 0,000 mm 0,0 UV-I 0 W/m -1,0 C -2,2 C 12,6 km/h (3 Bft) 99,08 %
09.12.2017 05:00 0,2 C 3,9 C 90 % 1011,5 hPa 0,0 l/m 15,1 km/h (3 Bft) W 0,00 h 0,000 mm 0,0 UV-I 0 W/m -1,3 C -6,7 C 22,9 km/h (4 Bft) 97,90 %
09.12.2017 06:00 0,0 C 3,9 C 87 % 1011,8 hPa 0,0 l/m 16,6 km/h (3 Bft) W 0,00 h 0,026 mm 0,0 UV-I 0 W/m -1,8 C -7,8 C 24,3 km/h (4 Bft) 97,86 %
09.12.2017 07:00 -0,4 C 3,9 C 87 % 1012,2 hPa 0,0 l/m 14,4 km/h (3 Bft) W-SW 0,00 h 0,025 mm 0,0 UV-I 5 W/m -2,2 C -7,0 C 21,8 km/h (4 Bft) 97,11 %
09.12.2017 08:00 -0,6 C 3,9 C 89 % 1013,1 hPa 0,0 l/m 17,4 km/h (3 Bft) W-SW 0,00 h 0,026 mm 0,0 UV-I 15 W/m -2,3 C -9,0 C 26,5 km/h (4 Bft) 98,54 %
09.12.2017 09:00 -0,7 C 3,9 C 83 % 1013,4 hPa 0,0 l/m 18,7 km/h (3 Bft) W-SW 0,43 h 0,025 mm 0,0 UV-I 119 W/m -3,3 C -9,8 C 27,7 km/h (4 Bft) 98,68 %
09.12.2017 10:00 -1,0 C 3,9 C 87 % 1013,9 hPa 0,0 l/m 18,8 km/h (3 Bft) SW 0,00 h 0,051 mm 0,0 UV-I 49 W/m -3,0 C -10,3 C 29,2 km/h (5 Bft) 97,38 %
09.12.2017 11:00 -1,0 C 3,9 C 88 % 1013,7 hPa 0,0 l/m 19,1 km/h (3 Bft) W-SW 0,00 h 0,025 mm 0,0 UV-I 41 W/m -2,8 C -10,4 C 29,4 km/h (5 Bft) 97,62 %
09.12.2017 12:00 -0,6 C 3,9 C 83 % 1013,8 hPa 0,0 l/m 20,0 km/h (4 Bft) W-SW 0,00 h 0,026 mm 0,0 UV-I 55 W/m -3,1 C -10,2 C 31,4 km/h (5 Bft) 98,21 %
09.12.2017 13:00 -0,5 C 3,9 C 80 % 1014,3 hPa 0,0 l/m 21,9 km/h (4 Bft) W-SW 0,00 h 0,050 mm 0,0 UV-I 48 W/m -3,4 C -11,0 C 34,0 km/h (5 Bft) 98,76 %
09.12.2017 14:00 -0,4 C 3,9 C 77 % 1014,6 hPa 0,0 l/m 21,2 km/h (4 Bft) W-SW 0,00 h 0,051 mm 0,0 UV-I 56 W/m -4,1 C -10,7 C 34,3 km/h (5 Bft) 97,28 %
09.12.2017 15:00 -0,6 C 3,9 C 76 % 1014,7 hPa 0,0 l/m 20,9 km/h (4 Bft) W-SW 0,53 h 0,051 mm 0,0 UV-I 38 W/m -4,3 C -10,8 C 31,8 km/h (5 Bft) 97,41 %
09.12.2017 16:00 -1,1 C 3,9 C 74 % 1014,9 hPa 0,0 l/m 16,4 km/h (3 Bft) W 0,00 h 0,051 mm 0,0 UV-I 8 W/m -5,0 C -9,0 C 24,3 km/h (4 Bft) 97,92 %
09.12.2017 17:00 -1,6 C 3,9 C 78 % 1015,2 hPa 0,0 l/m 15,0 km/h (3 Bft) W-SW 0,00 h 0,025 mm 0,0 UV-I 0 W/m -4,9 C -8,8 C 22,6 km/h (4 Bft) 99,30 %
09.12.2017 18:00 -1,4 C 3,9 C 77 % 1015,5 hPa 0,0 l/m 18,3 km/h (3 Bft) W-SW 0,00 h 0,026 mm 0,0 UV-I 0 W/m -4,9 C -10,6 C 27,0 km/h (4 Bft) 96,49 %
09.12.2017 19:00 -1,4 C 3,9 C 76 % 1016,0 hPa 0,0 l/m 17,6 km/h (3 Bft) W-SW 0,00 h 0,025 mm 0,0 UV-I 0 W/m -5,0 C -10,2 C 26,4 km/h (4 Bft) 97,93 %
09.12.2017 20:00 -1,6 C 3,9 C 77 % 1016,2 hPa 0,0 l/m 16,9 km/h (3 Bft) SW 0,00 h 0,025 mm 0,0 UV-I 0 W/m -5,0 C -10,0 C 24,7 km/h (4 Bft) 97,45 %
09.12.2017 21:00 -1,2 C 3,9 C 75 % 1016,1 hPa 0,0 l/m 19,0 km/h (3 Bft) SW 0,00 h 0,026 mm 0,0 UV-I 0 W/m -5,0 C -10,6 C 28,5 km/h (4 Bft) 99,07 %
09.12.2017 22:00 -1,1 C 3,9 C 74 % 1015,6 hPa 0,0 l/m 18,9 km/h (3 Bft) SW 0,00 h 0,025 mm 0,0 UV-I 0 W/m -5,1 C -10,5 C 28,1 km/h (4 Bft) 96,56 %
09.12.2017 23:00 -1,0 C 3,9 C 73 % 1015,5 hPa 0,0 l/m 15,9 km/h (3 Bft) SW 0,00 h 0,026 mm 0,0 UV-I 0 W/m -5,3 C -8,7 C 24,2 km/h (4 Bft) 96,87 %
10.12.2017 00:00 -1,3 C 3,9 C 74 % 1015,0 hPa 0,0 l/m 15,3 km/h (3 Bft) W-SW 0,00 h 0,000 mm 0,0 UV-I 0 W/m -5,3 C -8,7 C 22,9 km/h (4 Bft) 98,77 %
10.12.2017 01:00 -1,9 C 3,9 C 76 % 1014,6 hPa 0,0 l/m 14,3 km/h (3 Bft) W-SW 0,00 h 0,025 mm 0,0 UV-I 0 W/m -5,6 C -8,8 C 20,7 km/h (4 Bft) 98,23 %
10.12.2017 02:00 -2,4 C 3,9 C 77 % 1014,2 hPa 0,0 l/m 9,8 km/h (2 Bft) SW 0,00 h 0,026 mm 0,0 UV-I 0 W/m -5,9 C -5,9 C 15,1 km/h (3 Bft) 97,17 %
10.12.2017 03:00 -3,1 C 3,9 C 78 % 1013,3 hPa 0,0 l/m 5,5 km/h (1 Bft) SW 0,00 h 0,025 mm 0,0 UV-I 0 W/m -6,3 C -3,3 C 8,5 km/h (2 Bft) 97,25 %
10.12.2017 04:00 -3,4 C 3,9 C 80 % 1012,3 hPa 0,0 l/m 4,6 km/h (1 Bft) S 0,00 h 0,000 mm 0,0 UV-I 0 W/m -6,4 C -3,4 C 7,8 km/h (2 Bft) 99,12 %
10.12.2017 05:00 -3,5 C 3,9 C 80 % 1011,4 hPa 0,0 l/m 2,2 km/h (1 Bft) S-SO 0,00 h 0,000 mm 0,0 UV-I 0 W/m -6,4 C -3,5 C 4,1 km/h (1 Bft) 97,31 %
10.12.2017 06:00 -4,0 C 3,8 C 81 % 1010,7 hPa 0,0 l/m 2,7 km/h (1 Bft) S-SO 0,00 h 0,000 mm 0,0 UV-I 0 W/m -6,8 C -4,0 C 5,6 km/h (1 Bft) 97,79 %
10.12.2017 07:00 -4,6 C 3,7 C 80 % 1009,7 hPa 0,0 l/m 2,4 km/h (1 Bft) SO 0,07 h 0,000 mm 0,0 UV-I 8 W/m -7,5 C -4,7 C 5,4 km/h (1 Bft) 97,36 %
10.12.2017 08:00 -4,9 C 3,7 C 82 % 1008,7 hPa 0,0 l/m 0,9 km/h (0 Bft) SO 0,60 h 0,000 mm 0,0 UV-I 78 W/m -7,5 C -4,9 C 2,3 km/h (1 Bft) 99,00 %
10.12.2017 09:00 -3,4 C 3,7 C 77 % 1006,7 hPa 0,0 l/m 7,6 km/h (2 Bft) O-SO 1,00 h 0,026 mm 0,0 UV-I 212 W/m -6,9 C -5,4 C 12,0 km/h (2 Bft) 98,42 %
10.12.2017 10:00 -2,3 C 3,8 C 75 % 1004,5 hPa 0,0 l/m 9,7 km/h (2 Bft) O-NO 1,00 h 0,076 mm 0,5 UV-I 269 W/m -6,1 C -5,5 C 14,8 km/h (3 Bft) 98,22 %
10.12.2017 11:00 -1,2 C 3,9 C 72 % 1001,7 hPa 0,0 l/m 16,3 km/h (3 Bft) O-NO 1,00 h 0,101 mm 0,6 UV-I 310 W/m -5,5 C -9,2 C 21,9 km/h (4 Bft) 98,31 %
10.12.2017 12:00 -1,0 C 3,9 C 73 % 998,8 hPa 0,0 l/m 15,7 km/h (3 Bft) O-NO 0,27 h 0,127 mm 0,5 UV-I 154 W/m -5,2 C -8,6 C 21,1 km/h (4 Bft) 99,03 %
10.12.2017 13:00 -0,8 C 3,9 C 73 % 996,2 hPa 0,0 l/m 14,0 km/h (3 Bft) O-NO 0,00 h 0,077 mm 0,0 UV-I 77 W/m -5,0 C -7,2 C 19,3 km/h (3 Bft) 97,96 %
10.12.2017 14:00 -0,5 C 3,9 C 72 % 994,1 hPa 0,0 l/m 13,1 km/h (3 Bft) O-NO 0,00 h 0,050 mm 0,0 UV-I 39 W/m -5,0 C -6,3 C 18,2 km/h (3 Bft) 99,40 %
10.12.2017 15:00 -0,4 C 3,9 C 74 % 993,1 hPa 0,0 l/m 11,6 km/h (2 Bft) O-NO 0,00 h 0,051 mm 0,0 UV-I 11 W/m -4,5 C -5,1 C 17,1 km/h (3 Bft) 95,93 %
10.12.2017 16:00 -1,7 C 3,9 C 91 % 992,7 hPa 0,0 l/m 10,4 km/h (2 Bft) NO 0,00 h 0,026 mm 0,0 UV-I 5 W/m -2,9 C -5,5 C 14,8 km/h (3 Bft) 98,21 %
10.12.2017 17:00 -1,6 C 3,9 C 95 % 993,3 hPa 0,0 l/m 3,5 km/h (1 Bft) N-NO 0,00 h 0,000 mm 0,0 UV-I 0 W/m -2,4 C -1,7 C 5,3 km/h (1 Bft) 97,67 %
10.12.2017 18:00 -1,4 C 3,9 C 95 % 993,6 hPa 0,0 l/m 2,6 km/h (1 Bft) O-NO 0,00 h 0,000 mm 0,0 UV-I 0 W/m -2,1 C -1,4 C 4,5 km/h (1 Bft) 98,83 %
10.12.2017 19:00 -1,6 C 3,9 C 96 % 993,8 hPa 0,0 l/m 2,6 km/h (1 Bft) O 0,00 h 0,000 mm 0,0 UV-I 0 W/m -2,2 C -1,7 C 5,1 km/h (1 Bft) 96,02 %
10.12.2017 20:00 -1,1 C 3,9 C 96 % 994,3 hPa 0,0 l/m 5,1 km/h (1 Bft) O-SO 0,00 h 0,000 mm 0,0 UV-I 0 W/m -1,6 C -2,5 C 9,1 km/h (2 Bft) 98,78 %
10.12.2017 21:00 0,1 C 3,9 C 95 % 994,3 hPa 0,0 l/m 1,9 km/h (1 Bft) O-SO 0,00 h 0,000 mm 0,0 UV-I 0 W/m -0,6 C 0,1 C 4,2 km/h (1 Bft) 98,32 %
10.12.2017 22:00 -0,3 C 3,9 C 96 % 994,4 hPa 0,0 l/m 3,3 km/h (1 Bft) O-NO 0,00 h 0,000 mm 0,0 UV-I 0 W/m -0,9 C -0,4 C 5,6 km/h (1 Bft) 99,37 %
10.12.2017 23:00 -0,6 C 3,9 C 96 % 994,0 hPa 0,0 l/m 1,9 km/h (1 Bft) O-NO 0,00 h 0,000 mm 0,0 UV-I 0 W/m -1,1 C -0,6 C 4,0 km/h (1 Bft) 96,04 %
Min-Datum _ 10.12.17 10.12.17 10.12.17 10.12.17 - 07.12.17 - - - - - 10.12.17 09.12.17 07.12.17 05.12.17
_ Min-Zeit 08:24 06:42 11:46 16:20 - 07:20 - - - - - 08:18 15:42 07:20 00:02
Minimum _ -5,4 C 3,3 C 70 % 992,5 hPa - 0,0 km/h (0 Bft) - - - - - -7,9 C -14,1 C 0,0 km/h (0 Bft) 12,50 %
Max-Datum _ 08.12.17 04.12.17 04.12.17 05.12.17 05.12.17 09.12.17 - 10.12.17 07.12.17 07.12.17 07.12.17 08.12.17 07.12.17 09.12.17 04.12.17
_ Max-Zeit 13:12 00:00 13:46 10:18 07:04 15:42 - 09:03 13:00 11:56 12:00 14:02 14:14 12:58 00:00
Maximum _ 3,9 C 4,4 C 97 % 1034,5 hPa 1,6 l/m 29,0 km/h
W-SW (5 Bft)
- 0,05 h 0,127 mm 0,7 UV-I 440 W/m 2,8 C 3,2 C 49,9 km/h
W-SW (6 Bft)
100,00 %
Durchschnitt _ 0,5 C 4,0 C 88 % 1020,9 hPa #19,6 l/m 11,6 km/h (2 Bft) W-SW #9:32 h #3,303 mm 0,6 UV-I 64 W/m -1,2 C -4,2 C 17,6 km/h (3 Bft) 97,94 %